Weather History for KMMU - September, 2013

Change the Weather History Date:

Friday, September 6, 2013

  Actual Average Record
Temperature  
Mean Temperature 56 °F -  
Max Temperature 69 °F 79 °F 92 °F (1983)
Min Temperature 42 °F 57 °F 35 °F (1938)
Degree Days  
Heating Degree Days 10    
Growing Degree Days 6 (Base 50)    
Moisture  
Dew Point 45 °F    
Average Humidity 77    
Maximum Humidity 94    
Minimum Humidity 33    
Precipitation  
Precipitation 0.00 in - - ()
Sea Level Pressure  
Sea Level Pressure 30.20 in    
Wind  
Wind Speed 1 mph (NNE)    
Max Wind Speed 8 mph    
Max Gust Speed -    
Visibility 11 miles    
Events      
Averages and records for this station are not official NWS values.
T = Trace of Precipitation, MM = Missing Value Source: NWS Daily Summary

Daily Weather History Graph

Daily Weather History Graph

Search for Another Location

Airport or City:

Trip Planner

Search our weather history database for the weather conditions in past years. The results will help you decide how hot, cold, wet, or windy it might be!

Date:

Astronomy

Sep. 06, 2013 Rise Set
Actual Time 6:29 AM EDT 7:21 PM EDT
Civil Twilight 6:01 AM EDT 7:49 PM EDT
Nautical Twilight 5:28 AM EDT 8:22 PM EDT
Astronomical Twilight 4:54 AM EDT 8:56 PM EDT
Moon 7:40 AM EDT (9/6) 7:43 PM EDT (9/6)
Length of Visible Light 13h 47m
Length of Day
12h 51m
New Moon, 1% of the Moon is Illuminated
Sep 6
New Moon
Sep 12
First Quarter
Sep 19
Full
Sep 26
Last Quarter
Oct 4
New

Hourly Weather History & Observations

Time (EDT) Temp. Dew Point Humidity Pressure Visibility Wind Dir Wind Speed Gust Speed Precip Events Conditions
12:15 AM 51.8 °F 48.2 °F 88% 30.17 in 10.0 mi Calm Calm - N/A   Clear
12:35 AM 51.8 °F 48.2 °F 88% 30.18 in 10.0 mi Calm Calm - N/A   Clear
12:55 AM 51.8 °F 48.2 °F 88% 30.18 in 10.0 mi Calm Calm - N/A   Clear
1:15 AM 50.0 °F 46.4 °F 87% 30.19 in 10.0 mi Calm Calm - N/A   Clear
1:35 AM 50.0 °F 48.2 °F 94% 30.19 in 10.0 mi Calm Calm - N/A   Clear
1:55 AM 50.0 °F 46.4 °F 87% 30.20 in 10.0 mi Calm Calm - N/A   Clear
2:15 AM 51.8 °F 48.2 °F 88% 30.20 in 10.0 mi NW 3.5 mph - N/A   Clear
2:35 AM 50.0 °F 46.4 °F 87% 30.20 in 10.0 mi Calm Calm - N/A   Clear
2:55 AM 48.2 °F 44.6 °F 87% 30.19 in 10.0 mi Calm Calm - N/A   Clear
3:15 AM 48.2 °F 44.6 °F 87% 30.20 in 10.0 mi Calm Calm - N/A   Clear
3:35 AM 48.2 °F 44.6 °F 87% 30.20 in 10.0 mi Calm Calm - N/A   Clear
3:55 AM 48.2 °F 44.6 °F 87% 30.20 in 10.0 mi Calm Calm - N/A   Clear
4:15 AM 46.4 °F 44.6 °F 93% 30.20 in 10.0 mi Calm Calm - N/A   Clear
4:35 AM 44.6 °F 42.8 °F 93% 30.21 in 10.0 mi Calm Calm - N/A   Clear
4:55 AM 46.4 °F 42.8 °F 87% 30.21 in 10.0 mi Calm Calm - N/A   Clear
5:15 AM 44.6 °F 41.0 °F 87% 30.22 in 10.0 mi Calm Calm - N/A   Clear
5:35 AM 42.8 °F 41.0 °F 93% 30.22 in 10.0 mi Calm Calm - N/A   Clear
5:55 AM 44.6 °F 41.0 °F 87% 30.23 in 10.0 mi Calm Calm - N/A   Clear
6:15 AM 44.6 °F 42.8 °F 93% 30.23 in 10.0 mi Calm Calm - N/A   Clear
6:35 AM 46.4 °F 42.8 °F 87% 30.24 in 10.0 mi Calm Calm - N/A   Clear
6:45 AM 44.6 °F 42.8 °F 93% 30.25 in 10.0 mi Calm Calm - N/A   Scattered Clouds
7:45 AM 50.0 °F 46.4 °F 87% 30.26 in 10.0 mi Calm Calm - N/A   Mostly Cloudy
8:45 AM 55.4 °F 48.2 °F 77% 30.27 in 10.0 mi Calm Calm - N/A   Mostly Cloudy
9:45 AM 59.0 °F 44.6 °F 59% 30.27 in 10.0 mi NE 8.1 mph - N/A   Mostly Cloudy
10:45 AM 64.4 °F 41.0 °F 42% 30.27 in 10.0 mi North 5.8 mph - N/A   Mostly Cloudy
11:45 AM 64.4 °F 41.0 °F 42% 30.27 in 10.0 mi North 4.6 mph - N/A   Mostly Cloudy
12:45 PM 68.0 °F 60.8 °F 78% 30.25 in 10.0 mi NW 3.5 mph - N/A   Scattered Clouds
1:45 PM 68.0 °F 41.0 °F 37% 30.24 in 10.0 mi ENE 4.6 mph - N/A   Partly Cloudy
2:45 PM 68.0 °F 39.2 °F 35% 30.21 in 10.0 mi Calm Calm - N/A   Partly Cloudy
3:45 PM 69.8 °F 39.2 °F 33% 30.18 in 20.0 mi Calm Calm - N/A   Partly Cloudy
4:45 PM 69.8 °F 41.0 °F 35% 30.17 in 20.0 mi ESE 4.6 mph - N/A   Partly Cloudy
5:45 PM 69.8 °F 41.0 °F 35% 30.16 in 10.0 mi Calm Calm - N/A   Partly Cloudy
6:45 PM 66.2 °F 42.8 °F 43% 30.16 in 20.0 mi Calm Calm - N/A   Partly Cloudy
7:45 PM 55.4 °F 48.2 °F 77% 30.17 in 10.0 mi Calm Calm - N/A   Partly Cloudy
8:45 PM 51.8 °F 48.2 °F 88% 30.17 in 10.0 mi Calm Calm - N/A   Partly Cloudy
9:45 PM 50.0 °F 46.4 °F 87% 30.17 in 10.0 mi Calm Calm - N/A   Clear
10:55 PM 48.2 °F 46.4 °F 93% 30.16 in 10.0 mi Calm Calm - N/A   Clear
11:15 PM 48.2 °F 44.6 °F 87% 30.16 in 10.0 mi Calm Calm - N/A   Clear
11:35 PM 48.2 °F 44.6 °F 87% 30.16 in 10.0 mi Calm Calm - N/A   Clear
11:55 PM 48.2 °F 44.6 °F 87% 30.15 in 10.0 mi Calm Calm - N/A   Clear